ONEWEB-0331 (49198 NORAD) Tracking and Keplerian Element Data

This shows tracking and keplerian element data for the satellite.

Feedback or suggestion? Click here.




ElementValue
Catalog49198
NameONEWEB-0331
Epoch Orbit591
Epoch Day288.25002315
Epoch Year2021
RAAN317.7594
Inclination87.4642
Eccentricity0.0020534
Argument of Perigee192.7324
Mean Anonmoly1.3652
Mean Motion14.92540867
Decay Rate-0.01370594
L11 49198U 21083N 21288.25002315 -.01370594 00000-0 -14485+0 0 9996
L22 49198 87.4642 317.7594 0020534 192.7324 1.3652 14.92540867 5910

Live tracking and technical data element details for ONEWEB-0331 (NORAD 49198). ONEWEB-0331 can be tracked NOW for your location showing map with azimuth and elevation plus other details from your city location.

Track the satellite on the map from your city or location and see movement details for azimuth, elevation, latitude, longitude, range, height, and movement on the map or in text.







IsCatalogInMostPopularTable: catalog: 49198, numindb: 9
Update: records affected: 1



GetName: 49198 ONEWEB-0331

Hit Count: updated at: Tue, 19 Oct 2021 08:28:36 GMT